Location: Wayah Bald
(35.1806°N, 83.5603°W)
Time: 17:57:13
(UTC-04:00)

Meteor 1-27 Rocket - Visible Passes

Search period start: 04 August 2015 00:00
Search period end: 14 August 2015 00:00
Orbit: 830 x 910 km, 81.3° (Epoch: 03 August)

Date Brightness Start Highest point End Pass type
(mag) Time Alt. Az. Time Alt. Az. Time Alt. Az.
04 Aug 6.1 21:53:51 10° NW 21:58:03 21° W 22:02:05 10° SW visible
05 Aug 6.2 21:47:46 10° NW 21:51:53 21° W 21:55:50 10° SW visible
06 Aug 6.3 21:41:41 10° NW 21:45:43 20° W 21:49:35 10° SW visible
07 Aug 6.4 21:35:35 10° NW 21:39:33 19° W 21:43:19 10° SW visible
08 Aug 6.4 21:29:31 10° NW 21:33:23 19° W 21:37:04 10° SW visible
09 Aug 6.5 21:23:26 10° NW 21:27:13 18° W 21:30:48 10° SW visible
10 Aug 6.5 21:17:21 10° NW 21:21:04 17° W 21:24:32 10° SW visible
11 Aug 6.6 21:11:18 10° NW 21:14:54 17° W 21:18:15 10° SW visible
12 Aug 6.6 21:05:14 10° NW 21:08:44 16° W 21:11:59 10° WSW visible
13 Aug 6.7 20:59:10 10° NW 21:02:34 16° W 21:05:41 10° WSW visible
